Regional Weather Roundup
Issued by NWS Mt. Holly, NJ

Home | Current Version | Previous Version | Text Only | Print | Product List | Glossary On
Versions: 1 2 3 4 5 6 7 8 9 10 11 12 13 14 15 16 17 18 19 20 21 22 23 24 25 26 27 28 29 30 31 32 33 34 35 36 37 38 39 40 41 42 43 44 45 46 47 48 49 50
000
ASUS41 KPHI 260912
RWRPHI

REGIONAL WEATHER ROUNDUP
NATIONAL WEATHER SERVICE MOUNT HOLLY NJ
500 AM EDT FRI AUG 26 2016

NOTE:  "FAIR" INDICATES FEW OR NO CLOUDS BELOW 12,000 FEET WITH NO
SIGNIFICANT WEATHER AND/OR OBSTRUCTIONS TO VISIBILITY.

 * = STATION DOES NOT REPORT PRECIPITATION (E.G. RAIN, SNOW, ETC.)
        OR FOG.

NJZ015>026-261000-
SOUTHERN NEW JERSEY

CITY           SKY/WX    TMP DP  RH WIND       PRES   REMARKS
POMONA         FAIR      73  69  87 S5        30.01S
WILDWOOD*        N/A     74  71  91 S8        30.03R
MILLVILLE      FAIR      73  73 100 CALM      30.02S
WRIGHTSTOWN    FAIR      70  68  93 SW5       29.98F
MOUNT HOLLY    FAIR      71  69  93 VRB3      30.00S
TRENTON        FAIR      73  69  87 S6        29.99R

$$
NJZ001>014-261000-
NORTHERN NEW JERSEY

CITY           SKY/WX    TMP DP  RH WIND       PRES   REMARKS
SUSSEX         MOCLDY    69  69 100 CALM      29.98S FOG
ANDOVER*         N/A     71  70  96 CALM      29.99S
MORRISTOWN     FAIR      68  68 100 CALM      29.98S FOG
NEWARK         MOCLDY    75  70  84 SW7       29.97F
TETERBORO      FAIR      75  70  84 S5        29.96F
CALDWELL       FAIR      75  71  87 VRB3      29.98S
SOMERVILLE     FAIR      71  68  90 CALM      29.97R
ALLAIRE*       FAIR      72  68  87 S7        30.01F
TOMS RIVER*    FAIR      72  69  90 S8        30.00F

$$
PAZ043-044-047-054-055-060>062-066>071-261000-
EASTERN PENNSYLVANIA

CITY           SKY/WX    TMP DP  RH WIND       PRES   REMARKS
PHILADELPHIA   MOCLDY    75  70  84 SW9       30.00S
NORTH PHILA    FAIR      76  71  85 SW5       30.01R
BLUE BELL*     FAIR      73  72  94 SW5       29.99R
DOYLESTOWN     FAIR      75  72  90 S3        29.99S
QUAKERTOWN*    FAIR      73  72  94 CALM      30.01R
POTTSTOWN      FAIR      74  72  93 CALM      30.01R
LANCASTER      RAIN      75  75 100 W5        30.02R FOG
COATESVILLE    CLOUDY    75  73  94 VRB5      30.04R FOG
READING        CLOUDY    76  72  87 SW6       29.99R
ALLENTOWN      FAIR      72  70  94 CALM      29.99S FOG
MOUNT POCONO   FAIR      69 N/A N/A W6        30.04S
WILKES BARRE   CLOUDY    73  71  93 CALM      30.00R FOG

$$
DEZALL-MDZ008-012-015-019-020-261000-
DELAWARE AND EASTERN MARYLAND

CITY           SKY/WX    TMP DP  RH WIND       PRES   REMARKS
WILMINGTON     FAIR      74  70  87 S3        30.01S
DOVER          FAIR      75  75 100 S9        30.00R
GEORGETOWN     FAIR      72  70  93 SW5       30.03S
EASTON         FAIR      78  77  95 SW5       30.05S
PATUXENT       FAIR      76  70  82 SW6       30.01S
OCEAN CITY     FAIR      78  71  79 SW9       30.03F
WALLOPS ISLAND FAIR      75  67  76 SW6       30.04F
SALISBURY      FAIR      72  71  97 S5        30.03S

$$
PAZ001-021-NYZ056-072-MDZ011-DCZ001-261000-
OTHER NEARBY LOCATIONS

CITY           SKY/WX    TMP DP  RH WIND       PRES   REMARKS
HARRISBURG     MOCLDY    77  75  93 CALM      30.00S
STATE COLLEGE  FAIR      70  69  96 SW7       30.06R
WILLIAMSPORT   FAIR      75  70  84 W8        29.99R
BINGHAMTON     MOCLDY    71  69  93 W9        30.01R
NEW YORK CITY    N/A     77  70  78 MISG        N/A
BALTIMORE      MOCLDY    75  72  90 CALM      30.01R
WASHINGTON DC  FAIR      78  74  87 S3        30.02R

$$



USA.gov is the U.S. government's official web portal to all federal, state and local government web resources and services.